• Em Portugal
  • Lista de países
  • Para 7 dias
  • Temperatura da água
  • Mapas de satélite
  • Mapa do tempo
  • Widgets de tempo
  • user-avatar
    Iniciar Sessão

    Previsão horária em Cobán

    Hoje, 23 Novembro, Quinta-feira

    Tempo Temperatura Precipitação Vento Pressão Humidade
    00:00 +14°C° 0,1 mm 1 m/s 655 mmHg 97%
    01:00 +14°C° 0 mm 1 m/s 655 mmHg 97%
    02:00 +14°C° 0 mm 1 m/s 654 mmHg 97%
    03:00 +13°C° 0 mm 0 m/s 654 mmHg 97%
    04:00 +13°C° 0 mm 0 m/s 654 mmHg 97%
    05:00 +12°C° 0 mm 0 m/s 654 mmHg 97%
    06:00 +12°C° 0 mm 0 m/s 654 mmHg 97%
    07:00 +15°C° 0 mm 1 m/s 655 mmHg 89%
    08:00 +18°C° 0 mm 1 m/s 656 mmHg 81%
    09:00 +19°C° 0 mm 1 m/s 657 mmHg 74%
    10:00 +20°C° 0 mm 1 m/s 656 mmHg 69%
    11:00 +21°C° 0 mm 1 m/s 656 mmHg 64%
    12:00 +22°C° 0 mm 1 m/s 656 mmHg 60%
    13:00 +22°C° 0 mm 1 m/s 655 mmHg 61%
    14:00 +22°C° 0 mm 1 m/s 655 mmHg 62%
    15:00 +22°C° 0 mm 1 m/s 654 mmHg 63%
    16:00 +20°C° 0,1 mm 1 m/s 654 mmHg 71%
    17:00 +18°C° 0,1 mm 1 m/s 654 mmHg 80%
    18:00 +14°C° 0,1 mm 0 m/s 654 mmHg 89%
    19:00 +15°C° 0,1 mm 1 m/s 654 mmHg 90%
    20:00 +15°C° 0,1 mm 1 m/s 655 mmHg 92%
    21:00 +15°C° 0,1 mm 1 m/s 655 mmHg 93%
    22:00 +15°C° 0,1 mm 1 m/s 655 mmHg 94%
    23:00 +14°C° 0,1 mm 1 m/s 655 mmHg 95%

    Amanhã, 24 Novembro, Sexta-feira

    Tempo Temperatura Precipitação Vento Pressão Humidade
    00:00 +14°C° 0,1 mm 1 m/s 655 mmHg 96%
    01:00 +14°C° 0 mm 1 m/s 655 mmHg 96%
    02:00 +14°C° 0 mm 1 m/s 654 mmHg 96%
    03:00 +13°C° 0 mm 1 m/s 654 mmHg 96%
    04:00 +12°C° 0 mm 0 m/s 654 mmHg 96%
    05:00 +12°C° 0 mm 0 m/s 654 mmHg 96%
    06:00 +12°C° 0 mm 0 m/s 654 mmHg 96%
    07:00 +15°C° 0 mm 1 m/s 655 mmHg 88%
    08:00 +16°C° 0 mm 1 m/s 656 mmHg 81%
    09:00 +18°C° 0 mm 1 m/s 657 mmHg 73%
    10:00 +20°C° 0 mm 1 m/s 656 mmHg 68%
    11:00 +21°C° 0 mm 1 m/s 656 mmHg 63%
    12:00 +22°C° 0 mm 1 m/s 656 mmHg 57%
    13:00 +22°C° 0 mm 1 m/s 655 mmHg 57%
    14:00 +22°C° 0 mm 1 m/s 655 mmHg 58%
    15:00 +22°C° 0 mm 1 m/s 654 mmHg 58%
    16:00 +20°C° 0 mm 1 m/s 654 mmHg 68%
    17:00 +18°C° 0 mm 1 m/s 654 mmHg 77%
    18:00 +15°C° 0 mm 1 m/s 654 mmHg 87%
    19:00 +14°C° 0 mm 0 m/s 654 mmHg 89%
    20:00 +13°C° 0 mm 0 m/s 655 mmHg 92%
    21:00 +13°C° 0 mm 0 m/s 655 mmHg 94%
    22:00 +12°C° 0 mm 0 m/s 655 mmHg 94%
    23:00 +12°C° 0 mm 0 m/s 655 mmHg 94%

    Depois de amanhã, 25 Novembro, Sábado

    Tempo Temperatura Precipitação Vento Pressão Humidade
    00:00 +12°C° 0 mm 0 m/s 655 mmHg 94%
    01:00 +12°C° 0 mm 0 m/s 654 mmHg 95%
    02:00 +11°C° 0 mm 0 m/s 654 mmHg 95%
    03:00 +11°C° 0 mm 0 m/s 653 mmHg 96%
    04:00 +11°C° 0 mm 0 m/s 654 mmHg 96%
    05:00 +12°C° 0 mm 1 m/s 654 mmHg 95%
    06:00 +12°C° 0 mm 1 m/s 654 mmHg 95%
    07:00 +13°C° 0 mm 0 m/s 655 mmHg 85%
    08:00 +16°C° 0 mm 0 m/s 656 mmHg 74%
    09:00 +19°C° 0 mm 0 m/s 657 mmHg 64%
    10:00 +20°C° 0 mm 0 m/s 657 mmHg 59%
    11:00 +24°C° 0 mm 1 m/s 657 mmHg 54%
    12:00 +25°C° 0 mm 1 m/s 657 mmHg 49%
    13:00 +25°C° 0 mm 1 m/s 656 mmHg 50%
    14:00 +25°C° 0 mm 1 m/s 655 mmHg 52%
    15:00 +25°C° 0 mm 1 m/s 654 mmHg 54%
    16:00 +23°C° 0 mm 1 m/s 654 mmHg 65%
    17:00 +20°C° 0 mm 1 m/s 654 mmHg 76%
    18:00 +18°C° 0 mm 1 m/s 654 mmHg 87%
    19:00 +16°C° 0 mm 0 m/s 655 mmHg 90%
    20:00 +15°C° 0 mm 0 m/s 655 mmHg 92%
    21:00 +15°C° 0 mm 0 m/s 656 mmHg 94%
    22:00 +14°C° 0 mm 0 m/s 655 mmHg 95%
    23:00 +14°C° 0 mm 0 m/s 655 mmHg 96%

    26 Novembro, Domingo

    Tempo Temperatura Precipitação Vento Pressão Humidade
    00:00 +14°C° 0 mm 0 m/s 655 mmHg 97%
    01:00 +14°C° 0 mm 0 m/s 655 mmHg 97%
    02:00 +13°C° 0 mm 0 m/s 654 mmHg 97%
    03:00 +13°C° 0 mm 0 m/s 654 mmHg 97%
    04:00 +13°C° 0 mm 0 m/s 654 mmHg 97%
    05:00 +13°C° 0 mm 0 m/s 655 mmHg 97%
    06:00 +13°C° 0 mm 0 m/s 655 mmHg 98%
    07:00 +14°C° 0 mm 0 m/s 656 mmHg 92%
    08:00 +18°C° 0 mm 1 m/s 656 mmHg 86%
    09:00 +19°C° 0 mm 1 m/s 657 mmHg 79%
    10:00 +19°C° 0 mm 1 m/s 657 mmHg 77%
    11:00 +20°C° 0 mm 1 m/s 656 mmHg 75%
    12:00 +20°C° 0 mm 1 m/s 656 mmHg 73%
    13:00 +20°C° 0 mm 1 m/s 655 mmHg 72%
    14:00 +21°C° 0 mm 1 m/s 655 mmHg 70%
    15:00 +21°C° 0 mm 1 m/s 654 mmHg 69%
    16:00 +19°C° 0 mm 1 m/s 654 mmHg 77%
    17:00 +16°C° 0 mm 1 m/s 654 mmHg 85%
    18:00 +15°C° 0 mm 1 m/s 654 mmHg 92%
    19:00 +14°C° 0 mm 1 m/s 655 mmHg 93%
    20:00 +14°C° 0 mm 1 m/s 655 mmHg 94%
    21:00 +13°C° 0 mm 1 m/s 656 mmHg 95%
    22:00 +13°C° 0 mm 1 m/s 656 mmHg 95%
    23:00 +13°C° 0 mm 1 m/s 655 mmHg 95%

    27 Novembro, Segunda-feira

    Tempo Temperatura Precipitação Vento Pressão Humidade
    00:00 +13°C° 0 mm 1 m/s 655 mmHg 95%
    01:00 +12°C° 0,1 mm 1 m/s 655 mmHg 96%
    02:00 +12°C° 0,1 mm 1 m/s 654 mmHg 96%
    03:00 +12°C° 0,1 mm 1 m/s 654 mmHg 96%
    04:00 +12°C° 0 mm 1 m/s 654 mmHg 96%
    05:00 +12°C° 0 mm 1 m/s 655 mmHg 96%
    06:00 +12°C° 0 mm 1 m/s 655 mmHg 96%
    07:00 +13°C° 0,1 mm 1 m/s 655 mmHg 89%
    08:00 +14°C° 0,1 mm 1 m/s 656 mmHg 83%
    09:00 +16°C° 0,1 mm 1 m/s 656 mmHg 77%
    10:00 +18°C° 0 mm 1 m/s 656 mmHg 69%
    11:00 +20°C° 0 mm 1 m/s 656 mmHg 61%
    12:00 +21°C° 0 mm 1 m/s 656 mmHg 52%
    13:00 +21°C° 0 mm 1 m/s 655 mmHg 53%
    14:00 +21°C° 0 mm 1 m/s 654 mmHg 53%
    15:00 +21°C° 0 mm 1 m/s 654 mmHg 54%
    16:00 +19°C° 0 mm 1 m/s 654 mmHg 64%
    17:00 +16°C° 0 mm 1 m/s 653 mmHg 75%
    18:00 +14°C° 0 mm 1 m/s 653 mmHg 85%
    19:00 +13°C° 0 mm 1 m/s 653 mmHg 87%
    20:00 +13°C° 0 mm 1 m/s 654 mmHg 90%
    21:00 +12°C° 0 mm 1 m/s 654 mmHg 92%
    22:00 +12°C° 0 mm 1 m/s 654 mmHg 92%
    23:00 +11°C° 0 mm 1 m/s 654 mmHg 92%

    28 Novembro, Terça-feira

    Tempo Temperatura Precipitação Vento Pressão Humidade
    00:00 +11°C° 0 mm 1 m/s 653 mmHg 92%
    01:00 +11°C° 0 mm 1 m/s 653 mmHg 92%
    02:00 +11°C° 0 mm 1 m/s 653 mmHg 92%
    03:00 +11°C° 0 mm 1 m/s 653 mmHg 92%
    04:00 +10°C° 0 mm 1 m/s 653 mmHg 92%
    05:00 +10°C° 0 mm 1 m/s 653 mmHg 92%
    06:00 +10°C° 0 mm 1 m/s 653 mmHg 92%
    07:00 +12°C° 0 mm 0 m/s 654 mmHg 82%
    08:00 +15°C° 0 mm 0 m/s 655 mmHg 72%
    09:00 +18°C° 0 mm 0 m/s 656 mmHg 61%
    10:00 +21°C° 0 mm 1 m/s 656 mmHg 57%
    11:00 +23°C° 0 mm 1 m/s 656 mmHg 52%
    12:00 +24°C° 0 mm 1 m/s 656 mmHg 48%
    13:00 +24°C° 0 mm 1 m/s 655 mmHg 49%
    14:00 +24°C° 0 mm 1 m/s 654 mmHg 50%
    15:00 +24°C° 0 mm 1 m/s 654 mmHg 51%
    16:00 +21°C° 0 mm 1 m/s 654 mmHg 63%
    17:00 +19°C° 0 mm 1 m/s 653 mmHg 74%
    18:00 +15°C° 0 mm 1 m/s 653 mmHg 86%
    19:00 +15°C° 0 mm 1 m/s 654 mmHg 88%
    20:00 +14°C° 0 mm 1 m/s 654 mmHg 91%
    21:00 +14°C° 0 mm 1 m/s 655 mmHg 93%
    22:00 +12°C° 0 mm 0 m/s 655 mmHg 94%
    23:00 +12°C° 0 mm 0 m/s 654 mmHg 94%
    Mostrar mais